[[{"header":{"parameterUnit":"m.s-1","parameterCategory":1,"la1":30.2991,"la2":30.254,"lo1":-89.0895,"lo2":-89.0444,"dy":0.0017,"dx":0.0017,"nx":28,"ny":28,"refTime":"2023-04-02T21:00:00:Z","depth":0,"parameterNumber":2,"parameterNumberName":"U-component_of_WINDS"},"data":[0,0,0,0,0,0,0,0,0,0,0,0,0,0,0,0,0,0,0,0,0,0,0,0,0,0,0,0,0,0,0,0,0,0,0,0,0,0,0,0,0,0,0,0,0,0,0,0,0,0,0,0,0,0,0,0,0,0,-3.2147,-3.2147,0,-3.2121,-3.2121,-3.2121,-3.2013,-3.201,-3.2008,-3.2005,-3.1981,-3.1982,-3.1984,0,0,0,0,0,0,0,0,0,0,0,0,0,-3.2106,-3.2108,-3.2147,-3.2147,-3.2147,-3.2121,-3.2121,-3.212,-3.2013,-3.201,-3.2007,-3.2004,-3.198,-3.1982,-3.1984,0,0,0,0,0,0,0,0,0,0,0,0,0,-3.2107,-3.2108,-3.2147,-3.209,-3.2085,-3.2121,-3.2121,-3.212,-3.2014,-3.201,-3.2006,-3.2003,-3.1979,-3.1982,-3.1984,-3.2075,0,0,-3.1992,-3.1993,0,0,0,0,0,0,0,0,-3.2107,-3.2108,-3.2099,-3.2094,-3.2088,-3.2066,-3.2097,-3.2105,-3.2015,-3.2041,-3.2005,-3.2001,-3.2012,-3.2012,-3.2015,-3.2074,-3.2073,-3.1992,-3.1994,-3.1995,-3.1996,0,0,0,0,0,0,0,-3.2107,-3.2109,-3.2137,-3.2099,-3.2092,-3.2066,-3.2062,-3.2098,-3.2048,-3.2038,-3.203,-3.2028,-3.2009,-3.2013,-3.2014,-3.2072,-3.1992,-3.1994,-3.1996,-3.1997,-3.2205,-3.2209,0,0,0,0,0,0,-3.2115,-3.211,-3.2138,-3.2136,-3.2088,-3.207,-3.2065,-3.2077,-3.2047,-3.2039,-3.2032,-3.2024,-3.2011,-3.2011,-3.2013,-3.2118,-3.1995,-3.1997,-3.1999,-3.2201,-3.2206,-3.2211,0,0,0,0,0,0,-3.2114,-3.2118,-3.2139,-3.2121,-3.2121,-3.2075,-3.2089,-3.2079,-3.2083,-3.2042,-3.2033,-3.2045,-3.2008,-3.2009,-3.206,-3.2115,-3.1998,-3.2001,-3.2197,-3.2203,-3.2208,-3.2329,0,0,0,0,0,0,-3.2114,-3.2119,-3.2152,-3.2122,-3.2123,-3.2187,-3.2092,-3.2081,-3.2087,-3.2076,-3.2053,-3.2045,-3.2005,-3.2057,-3.2063,-3.2117,-3.2003,-3.2191,-3.2199,-3.2206,-3.232,-3.2338,-3.2354,0,0,0,0,0,-3.2112,-3.2187,-3.2155,-3.2159,-3.2164,-3.219,-3.2191,-3.2142,-3.2092,-3.2126,-3.21,-3.2046,-3.2108,-3.2063,-3.2069,-3.2124,-3.2188,-3.2197,-3.2206,-3.2312,-3.2335,-3.2354,0,0,0,0,0,0,-3.2226,-3.2182,-3.2145,-3.2213,-3.2206,-3.2172,-3.2213,-3.2167,-3.2175,-3.2165,-3.2104,-3.21,-3.2161,-3.2147,-3.2098,-3.2211,-3.2139,-3.215,-3.2218,-3.2239,-3.2256,-3.2259,-3.2005,0,0,0,0,0,-3.2258,-3.2283,-3.2244,-3.2307,-3.2306,-3.226,-3.227,-3.2233,-3.2224,-3.2221,-3.2198,-3.2192,-3.221,-3.2224,-3.2238,-3.2317,-3.2311,-3.2358,-3.2375,-3.2389,-3.24,-3.2442,-3.2463,-3.224,-3.224,-3.224,0,0,-3.2326,-3.2306,-3.2325,-3.233,-3.232,-3.2348,-3.2259,-3.2291,-3.2312,-3.2226,-3.2273,-3.2257,-3.2246,-3.2312,-3.234,-3.2303,-3.246,-3.2401,-3.2413,-3.2415,-3.2453,-3.2475,-3.2493,-3.2246,-3.2245,-3.2244,0,0,-3.2465,-3.2451,-3.2503,-3.2495,-3.2482,-3.2451,-3.2464,-3.2436,-3.2422,-3.2469,-3.2405,-3.2428,-3.2461,-3.2456,-3.2458,-3.2595,-3.2546,-3.2601,-3.2692,-3.2734,-3.2751,-3.2766,-3.2817,-3.2836,-3.2611,-3.2612,-3.2612,0,-3.2552,-3.259,-3.2536,-3.2573,-3.2577,-3.25,-3.2553,-3.2548,-3.254,-3.2545,-3.2503,-3.2543,-3.253,-3.2594,-3.2628,-3.2632,-3.2645,-3.2604,-3.2753,-3.2768,-3.2781,-3.2829,-3.2848,-3.2619,-3.2618,-3.2617,-3.2616,0,-3.2698,-3.2726,-3.277,-3.2764,-3.2773,-3.2818,-3.2771,-3.2787,-3.2749,-3.2723,-3.2772,-3.2754,-3.2764,-3.2776,-3.274,-3.2836,-3.2813,-3.2763,-3.269,-3.281,-3.2854,-3.2872,-3.2629,-3.2626,-3.2624,-3.2622,0,0,-3.2908,-3.2871,-3.2889,-3.2886,-3.2865,-3.2886,-3.2928,-3.2937,-3.2952,-3.2949,-3.2984,-3.3013,-3.2967,-3.2969,-3.2931,-3.2968,-3.308,-3.2913,-3.2912,-3.2946,-3.3187,-3.3226,-3.3248,-3.3047,-3.305,-3.3052,-3.3188,0,-3.3042,-3.311,-3.3063,-3.314,-3.3166,-3.3093,-3.3129,-3.3121,-3.3099,-3.3118,-3.3092,-3.3114,-3.305,-3.3052,-3.3084,-3.3059,-3.3128,-3.3049,-3.308,-3.3082,-3.3087,-3.327,-3.3312,-3.3441,-3.3205,-3.3208,-3.321,0,-3.3206,-3.3211,-3.3291,-3.3266,-3.3275,-3.3309,-3.3314,-3.3333,-3.3322,-3.3303,-3.3306,-3.3259,-3.3299,-3.3226,-3.3281,-3.3229,-3.3239,-3.3228,-3.3232,-3.3235,-3.3154,-3.328,-3.348,-3.3501,-3.3236,-3.3234,-3.3232,0,-3.3354,-3.338,-3.3431,-3.343,-3.3402,-3.3428,-3.3417,-3.3403,-3.3412,-3.3417,-3.3422,-3.3431,-3.3437,-3.3446,-3.3403,-3.3354,-3.3465,-3.3388,-3.3452,-3.3453,-3.348,-3.3479,-3.3687,-3.3483,-3.3483,-3.3483,-3.3482,0,-3.3509,-3.3561,-3.3497,-3.3529,-3.3586,-3.353,-3.3588,-3.357,-3.3558,-3.3586,-3.3523,-3.3551,-3.3492,-3.3514,-3.3481,-3.3533,-3.3535,-3.3522,-3.3513,-3.3528,-3.3531,-3.3535,-3.3526,-3.3488,-3.3487,-3.3486,-3.3485,0,-3.3684,-3.3642,-3.3694,-3.3663,-3.3656,-3.37,-3.3674,-3.3702,-3.3675,-3.3711,-3.3716,-3.3674,-3.3696,-3.3654,-3.3671,-3.3649,-3.3722,-3.3698,-3.3726,-3.372,-3.3786,-3.3782,-3.4006,-3.4033,-3.3811,-3.3814,-3.3815,0,-3.3786,-3.3824,-3.3798,-3.3811,-3.3804,-3.3827,-3.3836,-3.3783,-3.3795,-3.3787,-3.3817,-3.3834,-3.3845,-3.3885,-3.3856,-3.3869,-3.3846,-3.3924,-3.3848,-3.3863,-3.3849,-3.3848,-3.3853,-3.394,-3.3943,-3.3945,-3.3947,0,-3.3973,-3.395,-3.3965,-3.3973,-3.3986,-3.3989,-3.3989,-3.4004,-3.3948,-3.3965,-3.3987,-3.3995,-3.4013,-3.4031,-3.4038,-3.4027,-3.3979,-3.3971,-3.3987,-3.4004,-3.4019,-3.4014,-3.3771,-3.3966,-3.3964,-3.3963,-3.3962,-3.3961,-3.4115,-3.4147,-3.4133,-3.4152,-3.4145,-3.4147,-3.4172,-3.4148,-3.4165,-3.4175,-3.4143,-3.4173,-3.4162,-3.4166,-3.4161,-3.4184,-3.415,-3.4172,-3.4178,-3.4185,-3.4197,-3.4014,-3.4185,-3.4184,-3.4184,-3.4183,-3.4183,0,-3.43,-3.4288,-3.4305,-3.4307,-3.4322,-3.4273,-3.427,-3.4287,-3.4314,-3.4307,-3.432,-3.4346,-3.4364,-3.4336,-3.4349,-3.4374,-3.4352,-3.4379,-3.4378,-3.4377,-3.4226,-3.4212,-3.4397,-3.4397,-3.4397,-3.4397,-3.4396,-3.4396,-3.4398,-3.4449,-3.4426,-3.4473,-3.446,-3.4489,-3.4492,-3.4493,-3.4488,-3.452,-3.4534,-3.4515,-3.4501,-3.4513,-3.4528,-3.4519,-3.4528,-3.4563,-3.4548,-3.4408,-3.4387,-3.4367,-3.4353,-3.4565,-3.4565,-3.4696,-3.4697,-3.4698]},{"header":{"parameterUnit":"m.s-1","parameterCategory":1,"la1":30.2991,"la2":30.254,"lo1":-89.0895,"lo2":-89.0444,"dy":0.0017,"dx":0.0017,"nx":28,"ny":28,"refTime":"2023-04-02T21:00:00:Z","depth":0,"parameterNumber":3,"parameterNumberName":"V-component_of_WINDS"},"data":[0,0,0,0,0,0,0,0,0,0,0,0,0,0,0,0,0,0,0,0,0,0,0,0,0,0,0,0,0,0,0,0,0,0,0,0,0,0,0,0,0,0,0,0,0,0,0,0,0,0,0,0,0,0,0,0,0,0,-2.239,-2.239,0,-2.2392,-2.2392,-2.2392,-2.2366,-2.2366,-2.2365,-2.2364,-2.2367,-2.2367,-2.2368,0,0,0,0,0,0,0,0,0,0,0,0,0,-2.2362,-2.2363,-2.239,-2.239,-2.239,-2.2392,-2.2392,-2.2392,-2.2367,-2.2366,-2.2365,-2.2364,-2.2366,-2.2367,-2.2368,0,0,0,0,0,0,0,0,0,0,0,0,0,-2.237,-2.2363,-2.239,-2.2377,-2.2376,-2.2392,-2.2392,-2.2392,-2.2367,-2.2366,-2.2365,-2.2364,-2.2366,-2.2367,-2.2368,-2.2396,0,0,-2.2371,-2.2372,0,0,0,0,0,0,0,0,-2.237,-2.2371,-2.2379,-2.2378,-2.2377,-2.2378,-2.2383,-2.2393,-2.2367,-2.237,-2.2364,-2.2363,-2.2371,-2.2372,-2.2374,-2.2396,-2.2396,-2.2372,-2.2372,-2.2373,-2.2373,0,0,0,0,0,0,0,-2.2369,-2.2371,-2.2391,-2.2379,-2.2378,-2.2371,-2.2371,-2.2385,-2.2377,-2.237,-2.2368,-2.2369,-2.237,-2.2374,-2.2374,-2.2396,-2.2372,-2.2372,-2.2373,-2.2374,-2.2439,-2.244,0,0,0,0,0,0,-2.2371,-2.2371,-2.2391,-2.2391,-2.2371,-2.2373,-2.2373,-2.2379,-2.2376,-2.2375,-2.237,-2.2368,-2.2372,-2.2373,-2.2374,-2.2406,-2.2373,-2.2374,-2.2374,-2.2438,-2.244,-2.2441,0,0,0,0,0,0,-2.237,-2.2373,-2.239,-2.238,-2.2382,-2.2374,-2.2381,-2.2379,-2.2382,-2.2376,-2.2374,-2.2374,-2.2371,-2.2373,-2.2391,-2.2406,-2.2374,-2.2375,-2.2437,-2.2439,-2.244,-2.2471,0,0,0,0,0,0,-2.2369,-2.2373,-2.2383,-2.2381,-2.2383,-2.2407,-2.2382,-2.238,-2.2384,-2.2382,-2.238,-2.2379,-2.2371,-2.2389,-2.2392,-2.2407,-2.2376,-2.2436,-2.2438,-2.244,-2.2468,-2.2473,-2.2477,0,0,0,0,0,-2.2369,-2.2392,-2.2384,-2.2387,-2.2396,-2.2408,-2.2409,-2.2399,-2.2386,-2.2396,-2.2392,-2.2379,-2.2404,-2.2391,-2.2394,-2.241,-2.2435,-2.2437,-2.244,-2.2466,-2.2472,-2.2477,0,0,0,0,0,0,-2.2397,-2.2392,-2.2383,-2.2406,-2.2408,-2.2404,-2.2417,-2.2406,-2.2411,-2.2409,-2.2396,-2.2396,-2.2415,-2.2414,-2.24,-2.2436,-2.2417,-2.242,-2.2436,-2.2442,-2.2446,-2.2446,-2.2377,0,0,0,0,0,-2.2406,-2.2417,-2.2411,-2.2432,-2.2433,-2.2425,-2.243,-2.2422,-2.2423,-2.2424,-2.2421,-2.2422,-2.243,-2.2436,-2.2443,-2.2467,-2.2467,-2.248,-2.2484,-2.2488,-2.2491,-2.2503,-2.2509,-2.2449,-2.2449,-2.2449,0,0,-2.2425,-2.2423,-2.2431,-2.2438,-2.2438,-2.2449,-2.2426,-2.2438,-2.2446,-2.2425,-2.2442,-2.244,-2.244,-2.2462,-2.2471,-2.2461,-2.2507,-2.2491,-2.2494,-2.2495,-2.2506,-2.2512,-2.2517,-2.2451,-2.245,-2.245,0,0,-2.2465,-2.2465,-2.2482,-2.2482,-2.2483,-2.2477,-2.2481,-2.2478,-2.2476,-2.2492,-2.2477,-2.2485,-2.25,-2.2501,-2.2503,-2.2542,-2.253,-2.2544,-2.2568,-2.258,-2.2585,-2.2589,-2.2602,-2.2607,-2.2547,-2.2547,-2.2547,0,-2.2488,-2.2504,-2.2492,-2.2505,-2.2509,-2.249,-2.2507,-2.2508,-2.2511,-2.2513,-2.2502,-2.2519,-2.2518,-2.2539,-2.2549,-2.2551,-2.2555,-2.2545,-2.2585,-2.2589,-2.2593,-2.2605,-2.2611,-2.2549,-2.2549,-2.2548,-2.2548,0,-2.2532,-2.2543,-2.2557,-2.256,-2.2565,-2.258,-2.257,-2.2576,-2.2567,-2.2562,-2.2578,-2.2577,-2.2583,-2.2587,-2.2579,-2.2606,-2.26,-2.2587,-2.2568,-2.26,-2.2612,-2.2617,-2.2551,-2.2551,-2.255,-2.255,0,0,-2.2592,-2.2587,-2.2592,-2.2592,-2.2591,-2.2599,-2.2613,-2.2618,-2.2624,-2.2626,-2.2637,-2.2649,-2.2636,-2.2639,-2.2631,-2.2641,-2.2671,-2.2627,-2.2627,-2.2635,-2.2701,-2.2711,-2.2717,-2.2663,-2.2664,-2.2665,-2.2701,0,-2.263,-2.2654,-2.2643,-2.2667,-2.2677,-2.2658,-2.267,-2.267,-2.2666,-2.2673,-2.2668,-2.2676,-2.266,-2.2661,-2.2671,-2.2666,-2.2684,-2.2663,-2.2673,-2.2674,-2.2674,-2.2723,-2.2734,-2.2768,-2.2706,-2.2706,-2.2707,0,-2.2679,-2.2682,-2.2708,-2.2703,-2.2707,-2.2718,-2.2721,-2.2729,-2.2728,-2.2724,-2.2726,-2.2715,-2.2727,-2.2708,-2.2725,-2.2711,-2.2714,-2.2712,-2.2713,-2.2714,-2.2693,-2.2725,-2.2779,-2.2784,-2.2714,-2.2713,-2.2713,0,-2.2719,-2.273,-2.2747,-2.2748,-2.2743,-2.2751,-2.275,-2.2748,-2.2751,-2.2755,-2.2757,-2.2761,-2.2764,-2.2768,-2.2758,-2.2744,-2.2776,-2.2756,-2.2773,-2.2773,-2.2781,-2.278,-2.2836,-2.2783,-2.2782,-2.2782,-2.2782,0,-2.2764,-2.278,-2.2765,-2.2775,-2.2792,-2.2779,-2.2796,-2.2793,-2.2791,-2.28,-2.2784,-2.2793,-2.2779,-2.2786,-2.2778,-2.2793,-2.2794,-2.2791,-2.2789,-2.2793,-2.2793,-2.2795,-2.2793,-2.2784,-2.2783,-2.2783,-2.2783,0,-2.2812,-2.2803,-2.2819,-2.2813,-2.2812,-2.2825,-2.2819,-2.2828,-2.2822,-2.2833,-2.2835,-2.2825,-2.2833,-2.2823,-2.2829,-2.2824,-2.2845,-2.2839,-2.2845,-2.2843,-2.2861,-2.2859,-2.2919,-2.2926,-2.2869,-2.2869,-2.287,0,-2.2841,-2.2853,-2.2848,-2.2852,-2.2852,-2.2859,-2.2863,-2.285,-2.2854,-2.2853,-2.2862,-2.2868,-2.2872,-2.2885,-2.2878,-2.2883,-2.2877,-2.2898,-2.2878,-2.2881,-2.2877,-2.2877,-2.2878,-2.2902,-2.2903,-2.2903,-2.2904,0,-2.2894,-2.2888,-2.2894,-2.2897,-2.2901,-2.2904,-2.2905,-2.2909,-2.2895,-2.2901,-2.2908,-2.2911,-2.2917,-2.2923,-2.2926,-2.2924,-2.2912,-2.291,-2.2914,-2.2918,-2.2921,-2.292,-2.2856,-2.2909,-2.2908,-2.2908,-2.2908,-2.2907,-2.2933,-2.2943,-2.294,-2.2946,-2.2946,-2.2947,-2.2954,-2.2949,-2.2954,-2.2958,-2.295,-2.2959,-2.2957,-2.2959,-2.2959,-2.2965,-2.2956,-2.2962,-2.2964,-2.2966,-2.2968,-2.292,-2.2966,-2.2966,-2.2965,-2.2965,-2.2965,0,-2.2985,-2.2982,-2.2988,-2.2989,-2.2994,-2.2981,-2.2981,-2.2986,-2.2994,-2.2993,-2.2997,-2.3005,-2.301,-2.3004,-2.3008,-2.3015,-2.3009,-2.3016,-2.3016,-2.3015,-2.2976,-2.2972,-2.3021,-2.3021,-2.3021,-2.3021,-2.3021,-2.3021,-2.3013,-2.3027,-2.3021,-2.3035,-2.3032,-2.304,-2.3042,-2.3042,-2.3041,-2.305,-2.3055,-2.305,-2.3047,-2.305,-2.3055,-2.3052,-2.3055,-2.3064,-2.306,-2.3024,-2.3018,-2.3013,-2.3009,-2.3065,-2.3065,-2.3098,-2.3099,-2.3099]}]]